Météorologie Historique pour Midland Airpark, TX

Change the Weather History Date:

lundi, Mars 26, 2012

  Actual Average (KMAF) Record (KMAF)
Temperature  
Température moyenne 70 ° F 58 ° F  
Température maximum 82 ° F 73 ° F 90 ° F (1956)
Température minimum 57 ° F 43 ° F 20 ° F (1965)
Degree Days  
Degrés-jours de chauffage 0 8  
Month to date heating degree days 272  
Since 1 July heating degree days 2509  
Cooling Degree Days 4 1  
Month to date cooling degree days 9  
Year to date cooling degree days 11  
Growing Degree Days 20 (Base 50)    
Moisture  
Point de rosée 50 ° F    
Average Humidity 50    
Maximum Humidity 80    
Minimum Humidity 28    
Précipitation  
Précipitation 0.00 pouce 0.02 pouce 0.40 pouce (1977)
Month to date precipitation 0.50  
Year to date precipitation 1.77  
Neige  
Neige 0.00 pouce - - ()
Month to date snowfall  
Since 1 July snowfall  
Épaisseur de neige -    
Pression au niveau de la mer  
Pression au niveau de la mer 29.98 pouce    
Vent  
Vitesse du vent 12 mph (SSE)    
Vitesse maximum du vent 22 mph    
Max Gust Speed 30 mph    
Visibilité 10 Miles terrestres    
Evénements      
T = Trace of Precipitation, MM = Missing Value Source: NWS Daily Summary

Daily Weather History Graph

Daily Weather History Graph

Search for Another Location

Airport:

Trip Planner

Search our weather history database for the weather conditions in past years. The results will help you decide how hot, cold, wet, or windy it might be!

Date:

Astronomie

Mar. 26, 2012 Lever Coucher
Temps réel 07:43 CDT 20:04 CDT
Crépuscule civil 07:19 CDT 20:28 CDT
Crépuscule nautique 06:50 CDT 20:57 CDT
Crépuscule astronomique 06:21 CDT 21:26 CDT
Lune 09:50 CDT Pas de coucher de lune
Durée de lumière visible 13h 09m
Longueur du jour
12h 20m
Lune montante, 15% of the Moon is Illuminated
Mar 26
Lune montante
Mar 30
Premier quartier
avr 6
Pleine lune
avr 13
Dernier quartier
avr 21
Nouveau

Hourly Weather History & Observations

Heure (CDT) Température indice de chaleur Point de rosée Humidité Pression Visibilité Wind Dir Vitesse du vent Vitesse des rafales Precip Evénements Conditions météo
12:15 AM 69.6 ° F - 35.2 ° F 28% 30.03 pouce 10.0 mi SSE 11.5 mph - N/A   Ciel dégagé
12:35 AM 68.7 ° F - 35.2 ° F 29% 30.03 pouce 10.0 mi ESE 9.2 mph - N/A   Ciel dégagé
12:55 AM 66.9 ° F - 35.6 ° F 31% 30.03 pouce 10.0 mi SE 8.1 mph - N/A   Ciel dégagé
1:15 AM 65.3 ° F - 36.0 ° F 34% 30.03 pouce 10.0 mi SE 8.1 mph - N/A   Ciel dégagé
1:35 AM 64.4 ° F - 36.5 ° F 36% 30.02 pouce 10.0 mi ESE 5.8 mph - N/A   Ciel dégagé
1:55 AM 63.3 ° F - 37.2 ° F 38% 30.02 pouce 10.0 mi ESE 6.9 mph - N/A   Ciel dégagé
2:15 AM 63.0 ° F - 37.8 ° F 39% 30.02 pouce 10.0 mi SE 6.9 mph - N/A   Ciel dégagé
2:55 AM 62.2 ° F - 39.6 ° F 43% 30.01 pouce 10.0 mi SE 9.2 mph - N/A   Ciel dégagé
3:15 AM 61.9 ° F - 41.0 ° F 46% 30.02 pouce 10.0 mi SE 9.2 mph - N/A   Ciel dégagé
3:35 AM 62.1 ° F - 41.9 ° F 48% 30.01 pouce 10.0 mi SE 8.1 mph - N/A   Ciel dégagé
3:55 AM 62.1 ° F - 42.6 ° F 49% 30.00 pouce 10.0 mi SE 11.5 mph - N/A   Ciel dégagé
4:15 AM 61.9 ° F - 43.0 ° F 50% 30.00 pouce 10.0 mi SE 13.8 mph - N/A   Ciel dégagé
4:35 AM 61.0 ° F - 43.2 ° F 52% 30.00 pouce 10.0 mi SE 9.2 mph - N/A   Ciel dégagé
4:55 AM 60.6 ° F - 44.1 ° F 54% 30.00 pouce 10.0 mi SE 10.4 mph - N/A   Ciel dégagé
5:15 AM 61.3 ° F - 46.6 ° F 58% 30.00 pouce 10.0 mi SE 15.0 mph 19.6 mph N/A   Ciel dégagé
5:35 AM 60.8 ° F - 47.3 ° F 61% 30.01 pouce 10.0 mi SE 10.4 mph - N/A   Ciel dégagé
5:55 AM 60.1 ° F - 47.8 ° F 64% 30.03 pouce 10.0 mi Sud 10.4 mph - N/A   Ciel dégagé
6:15 AM 59.2 ° F - 48.4 ° F 67% 30.04 pouce 10.0 mi Sud 6.9 mph - N/A   Ciel dégagé
6:35 AM 58.1 ° F - 48.2 ° F 70% 30.04 pouce 10.0 mi SSE 5.8 mph - N/A   Ciel dégagé
6:55 AM 57.4 ° F - 48.2 ° F 71% 30.03 pouce 10.0 mi SSE 5.8 mph - N/A   Ciel dégagé
7:15 AM 57.2 ° F - 48.9 ° F 74% 30.04 pouce 10.0 mi SSE 3.5 mph - N/A   Ciel dégagé
7:55 AM 57.2 ° F - 49.5 ° F 75% 30.02 pouce 10.0 mi ESE 9.2 mph - N/A   Ciel dégagé
8:15 AM 57.0 ° F - 50.4 ° F 78% 30.03 pouce 10.0 mi SE 8.1 mph - N/A   Ciel dégagé
8:35 AM 59.0 ° F - 52.9 ° F 80% 30.02 pouce 10.0 mi SE 13.8 mph - N/A   Ciel dégagé
8:55 AM 60.8 ° F - 54.3 ° F 79% 30.03 pouce 10.0 mi SE 13.8 mph 19.6 mph N/A   Ciel dégagé
9:15 AM 62.1 ° F - 55.6 ° F 79% 30.02 pouce 7.0 mi SE 16.1 mph - N/A   Ciel dégagé
9:35 AM 63.9 ° F - 56.3 ° F 76% 30.03 pouce 10.0 mi SSE 13.8 mph 24.2 mph N/A   Ciel dégagé
9:55 AM 65.7 ° F - 56.1 ° F 71% 30.03 pouce 10.0 mi SSE 15.0 mph 25.3 mph N/A   Ciel dégagé
10:15 AM 67.3 ° F - 55.4 ° F 66% 30.03 pouce 10.0 mi SSE 17.3 mph 29.9 mph N/A   Ciel dégagé
10:35 AM 68.9 ° F - 55.2 ° F 62% 30.04 pouce 10.0 mi SSE 17.3 mph 25.3 mph N/A   Ciel dégagé
10:55 AM 70.3 ° F - 55.2 ° F 59% 30.04 pouce 10.0 mi SSE 20.7 mph 25.3 mph N/A   Ciel dégagé
11:15 AM 71.6 ° F - 54.3 ° F 54% 30.03 pouce 10.0 mi SSE 19.6 mph - N/A   Ciel dégagé
11:35 AM 72.7 ° F - 54.1 ° F 52% 30.03 pouce 10.0 mi SSE 15.0 mph 27.6 mph N/A   Ciel dégagé
11:55 AM 73.9 ° F - 54.1 ° F 50% 30.02 pouce 10.0 mi SSE 19.6 mph 26.5 mph N/A   Ciel dégagé
12:15 PM 74.8 ° F - 54.5 ° F 49% 30.01 pouce 10.0 mi Sud 21.9 mph 26.5 mph N/A   Ciel dégagé
12:35 PM 76.1 ° F - 54.9 ° F 48% 30.00 pouce 10.0 mi SSE 17.3 mph 26.5 mph N/A   Ciel dégagé
12:55 PM 77.2 ° F - 55.0 ° F 46% 30.00 pouce 10.0 mi SSE 17.3 mph - N/A   Ciel dégagé
1:15 PM 78.8 ° F - 54.7 ° F 43% 29.99 pouce 10.0 mi SSE 18.4 mph 21.9 mph N/A   Ciel dégagé
1:35 PM 79.9 ° F - 53.4 ° F 40% 29.98 pouce 10.0 mi Sud 16.1 mph 25.3 mph N/A   Ciel dégagé
1:55 PM 80.6 ° F - 52.9 ° F 38% 29.97 pouce 10.0 mi Sud 18.4 mph 26.5 mph N/A   Ciel dégagé
2:15 PM 81.5 ° F - 52.5 ° F 37% 29.96 pouce 10.0 mi Sud 17.3 mph 25.3 mph N/A   Ciel dégagé
2:35 PM 81.9 ° F - 52.0 ° F 35% 29.95 pouce 10.0 mi SSE 17.3 mph 26.5 mph N/A   Ciel dégagé
2:55 PM 82.2 ° F - 52.2 ° F 35% 29.94 pouce 10.0 mi SSE 18.4 mph 25.3 mph N/A   Ciel dégagé
3:15 PM 81.9 ° F - 52.9 ° F 37% 29.93 pouce 10.0 mi SSE 17.3 mph 24.2 mph N/A   Ciel dégagé
3:55 PM 82.8 ° F - 52.3 ° F 35% 29.92 pouce 10.0 mi Sud 19.6 mph 26.5 mph N/A   Ciel dégagé
4:15 PM 82.9 ° F - 52.3 ° F 35% 29.91 pouce 10.0 mi Sud 17.3 mph 24.2 mph N/A   Ciel dégagé
4:35 PM 82.9 ° F - 52.5 ° F 35% 29.90 pouce 10.0 mi SSE 17.3 mph 25.3 mph N/A   Ciel dégagé
4:55 PM 82.6 ° F - 52.3 ° F 35% 29.90 pouce 10.0 mi SSE 17.3 mph 23.0 mph N/A   Ciel dégagé
5:15 PM 82.4 ° F - 52.0 ° F 35% 29.89 pouce 10.0 mi Sud 15.0 mph 20.7 mph N/A   Ciel dégagé
5:35 PM 82.2 ° F 81.3 ° F 53.2 ° F 37% 29.89 pouce 10.0 mi SSE 16.1 mph 26.5 mph N/A   Ciel dégagé
5:55 PM 82.0 ° F 81.2 ° F 53.2 ° F 37% 29.88 pouce 10.0 mi SSE 18.4 mph - N/A   Ciel dégagé
6:15 PM 81.1 ° F 80.6 ° F 53.6 ° F 38% 29.89 pouce 10.0 mi SSE 13.8 mph - N/A   Ciel dégagé
6:35 PM 81.3 ° F 80.6 ° F 53.1 ° F 37% 29.88 pouce 10.0 mi Sud 18.4 mph - N/A   Ciel dégagé
6:55 PM 80.8 ° F 80.4 ° F 54.0 ° F 39% 29.89 pouce 10.0 mi SSE 15.0 mph 21.9 mph N/A   Ciel dégagé
7:15 PM 79.5 ° F - 54.5 ° F 42% 29.90 pouce 10.0 mi SSE 18.4 mph 23.0 mph N/A   Ciel dégagé
7:35 PM 78.1 ° F - 55.2 ° F 45% 29.91 pouce 10.0 mi SSE 12.7 mph 23.0 mph N/A   Ciel dégagé
7:55 PM 77.2 ° F - 55.8 ° F 47% 29.91 pouce 10.0 mi SSE 15.0 mph 23.0 mph N/A   Ciel dégagé
8:15 PM 76.3 ° F - 56.1 ° F 50% 29.92 pouce 10.0 mi SSE 12.7 mph - N/A   Ciel dégagé
8:35 PM 75.7 ° F - 56.5 ° F 51% 29.93 pouce 10.0 mi SSE 16.1 mph 21.9 mph N/A   Ciel dégagé
8:55 PM 75.2 ° F - 57.2 ° F 53% 29.93 pouce 10.0 mi SSE 20.7 mph 26.5 mph N/A   Ciel dégagé
9:15 PM 74.5 ° F - 57.7 ° F 56% 29.92 pouce 10.0 mi SSE 18.4 mph 23.0 mph N/A   Ciel dégagé
9:55 PM 73.4 ° F - 58.6 ° F 60% 29.93 pouce 10.0 mi SE 17.3 mph 23.0 mph N/A   Ciel dégagé
10:15 PM 72.7 ° F - 59.0 ° F 62% 29.92 pouce 10.0 mi SE 15.0 mph 20.7 mph N/A   Ciel dégagé
10:55 PM 71.8 ° F - 58.1 ° F 62% 29.95 pouce 10.0 mi Sud 13.8 mph 17.3 mph N/A   Ciel dégagé
11:55 PM 70.9 ° F - 58.1 ° F 64% 29.94 pouce 10.0 mi Sud 17.3 mph 24.2 mph N/A   Ciel dégagé